{"data":{"norad_id":53471,"intl_designator":"2022-099G","name":"STARLINK-4316","alt_names":[],"object_type":"PAYLOAD","status":"ACTIVE","operator":null,"country":"US","launch_date":"2022-08-12","launch_site_code":"AFWTR","launch_vehicle":null,"mission":null,"orbit_class":"UNKNOWN","rcs_meters":null,"size_class":null,"mass_kg":null,"dimensions":null,"purposes":["comms"],"wikipedia_slug":null,"has_3d_model":false,"image_url":null,"decayed_at":null,"tle_current":{"epoch":"2026-05-25T01:15:14.423328Z","epoch_age_seconds":60728,"freshness":"FRESH","line1":"1 53471U 22099G   26145.05225027  .00000555  00000+0  42501-4 0  9993","line2":"2 53471  97.4457 266.0803 0002097 103.1078 257.0383 15.05649916207532","mean_motion":15.05649916,"eccentricity":0.0002097,"inclination_deg":97.4457,"raan_deg":266.0803,"arg_perigee_deg":103.1078,"mean_anomaly_deg":257.0383,"bstar":4.2501e-5,"rev_number":20753,"period_min":95.639762251347,"perigee_km":548.05868382886,"apogee_km":550.96413957273,"semimajor_km":6927.6484117008,"source":"CELESTRAK","updated_at":"2026-05-25T13:38:17.428485Z"}}}